Погода в Починоке

Погода в Починоке : погода сейчас, прогноз погоды и архив. Всё, что Вы хотите узнать о погоде в Починоке!

Поиск расширенной информации на нашем сайте:

Другие новости

Новости СМИ2

Главная страница сайта

Новости сайта

03.07.2017

Напоминаем, что на нашем специализированном сайте Метеоцентр.Азия вы можете получить высокодетализированные автоматические прогнозы погоды по пунктам России, СНГ и мира в авиационном формате (включающие направление и скорость ветра, видимость, явления погоды, количество и форму облачности, нижнюю и верхнюю границу облачности).

Рекомендуем: в классическом стиле диваны интернет магазин

Погода в Починоке - сегодня

Время (UTC), дата Ветер
(°,м/с) 
Видим.   Явления Облачность Т
(°С)
Тd
(°С)
f(%) Тe
(°С)
Pmin
(гПа)
dP
(гПа)
Po
(мм)
O2
(г/м3)
Тmin Tmax R s Состояние
почвы
21 17.07.18 030 (СВ) 10 км    8/0 средняя, верхняя 
[Ac trans|Ci fib]
+21.9 +17.2 75 +35  1003.7  -0.3  735  270           
00 18.07.18 030 (СВ) 20000 м    ясно 
+19.6 +17.2 86 +33  1003.6  -0.3  735  273           
06 18.07.18 050 (СВ) 20000 м    8/8 600 м 
[Sc]
+22.6 +18.1 76 +38  1003.8  0.2  736  270  +18.4        мокрая 
09 18.07.18 020 (С) 20000 м    9/8 600 м кучево-дожд., средняя 
[Cb cap|Ac trans]
+23.7 +17.9 70 +38  1003.5  -0.2  735  269           
12 18.07.18 020 (С) 20000 м    8/8 600 м кучево-дожд. 
[Cb cap]
+25.3 +18.6 66 +42  1002.6  -0.7  735  267           
21 18.07.18 020 (С) 10 км    4/3 1000 м средняя 
[Sc|Ac trans]
+18.3 +17.1 93 +32  1003.2  735  274           
00 19.07.18 010 (С) 10 км    9/5 600 м кучево-дожд., средняя, верхняя 
[Cb cap|Ac trans|Ci fib]
+17.9 +16.8 93 +31  1002.6  -0.6  734  274           
03 19.07.18 360 (С) 4000 м  дымка{ливн. осадки}  10/8 600 м кучево-дожд., средняя 
[Cb cap|Ac und]
+18.1 +17.3 95 +33  1002.3  -0.3  734  273  +17.6    0.5     
06 19.07.18 060 (СВ) 4000 м  дымка{ливн. осадки}  10/9 600 м кучево-дожд., средняя 
[Cb cap|Ac und]
+20.1 +18.5 91 +36  1001.8  -0.3  734  271  +17.6      мокрая 
09 19.07.18 080 (В) 4000 м  слаб. ливневой дождь  9/8 600 м кучево-дожд., средняя 
[Cb cap|Ac trans]
+20.7 +18.5 87 +37  1002.3  0.5  734  271           
21 19.07.18 010 (С) 4000 м  дымка{ливн. осадки}  10/6 600 м кучево-дожд., средняя 
[Cb cap|Ac und]
+18.3 +17.9 98 +34  1003.1  0.1  735  273           
03 20.07.18 010 (С) 4000 м  дымка  10/10 600 м 
[Sc]
+18.6 +17.9 96 +35  1002.9  -0.1  735  273  +17.7       
06 20.07.18 010 (С) 4000 м  дымка  10/10 300 м кучево-дожд. 
[Cb cap]
+19.4 +18.2 93 +35  1002.7  0.1  735  272  +18      мокрая 
09 20.07.18 010 (С) 4000 м  слаб. ливневой дождь  10/10 300 м кучево-дожд. 
[Cb cap]
+19.9 +18.6 92 +37  1003.2  0.5  735  272           
21 20.07.18 350 (С) 4000 м  дымка  9/9 600 м кучево-дожд. 
[Cb cap]
+19.6 +18.6 94 +37  1004.3  736  272           
03 21.07.18 360 (С) 4000 м  дымка  9/6 1000 м средняя, верхняя 
[Sc|Ac trans|Cc]
+18.8 +18.2 96 +35  1004.9  0.1  736  273  +17.4    0.3     
06 21.07.18 030 (СВ) 4000 м  дымка  8/4 600 м кучево-дожд., средняя, верхняя 
[Cb cap|Ac trans|Cc]
+22.7 +19.6 83 +41  1004.8  0.2  736  269  +17.4        мокрая 
21 21.07.18 030 (СВ) 4000 м  дымка{ливн. осадки}  10/6 600 м кучево-дожд., средняя 
[Cb cap|Ac und]
+19.2 +18.5 96 +37  1006.9  0.3  738  273           
03 22.07.18 060 (СВ) 0500 м  туман{ливн. осадки}  ?/?  
+19.3 +18.8 97 +37  1006.7  737  273  +18.8    0.6     
06 22.07.18 060 (СВ) 4000 м  дымка{ливн. осадки, туман}  10/10 300 м кучево-дожд. 
[Cb cap]
+20.2 +18.7 91 +37  1006.8  0.2  738  272  +18.8    0.6    мокрая 
09 22.07.18 070 (В) 4000 м  дымка  10/10 600 м кучево-дожд. 
[Cb cap]
+21.4 +19.2 87 +39  1007.1  0.4  738  271           
21 22.07.18 050 (СВ) 4000 м  дымка{гроза}  8/3 1000 м верхняя 
[Sc|Ci fib]
+19.3 +18.2 93 +35  1007.5  0.5  738  274           
03 23.07.18 070 (В) 4000 м  дымка  10/9 600 м кучево-дожд., средняя 
[Cb cap|Ac trans]
+19 +17.6 92 +34  1008.1  1.1  738  274  +17.7         
06 23.07.18 070 (В) 4000 м  дымка  9/8 600 м кучево-дожд., средняя, верхняя 
[Cb cap|Ac trans|Cc]
+21.2 +18.1 82 +36  1008.1  0.2  739  272  +17.7        мокрая 
09 23.07.18 060 (СВ) 10 км    9/8 300 м кучево-дожд., средняя 
[Cb cap|Ac trans]
+22.1 +16.9 72 +35  1008.3  0.3  739  272           
Время (UTC), дата Ветер
(°,м/с) 
Видим.   Явления Облачность Т
(°С)
Тd
(°С)
f(%) Тe
(°С)
Pmin
(гПа)
dP
(гПа)
Po
(мм)
O2
(г/м3)
Тmin Tmax R s Состояние
почвы

Для получения пояснительной информации подведите курсор к названию столбца.

ПОГОДА в Починоке - архив

Всё, что Вы хотите узнать о погоде в Починоке - удобно и подробно!

Выберите нужную дату (начиная с 1 января 2015* года) и нажмите кнопку "Найти".
Будут отображены архивные сводки погоды по пункту Починок, начиная с указанной даты.


Отображать данные в формате CSV (для использования в таблицах Excel)


Внимание! Наш архив погоды предназначен исключительно для личного некоммерческого использования в познавательных целях. Если Вам необходимы официальные справки о состоянии погоды (для производственных, юридических, коммерческих и т.п. целей), обращайтесь в органы Росгидромета.

*Примечание: данная дата относится к архиву по метеостанциям СССР (Россия, СНГ, Балтия).
Архив по метеостанциям Зарубежной Европы и Азии (кроме Китая) хранится 10 дней, по другим регионам земного шара (Китай, Африка, Америка, Австралия, Океания) - 1 день.

Починок - район местоположения метеостанции


Название, широта, долгота, высота метеостанции:
Починок 54.4°ш. 32.4°д. 210 м над ур. моря [Российская Федерация]

Дополнительная информация

В oтличие oт бoльшинства пoгoдных сайтoв мы публикуем пoдрoбную метеoинфoрмацию в детальнoм прoфессиoнальнoм фoрмате.

Характеристики температуры и влажнoсти вoздуха измеряются на высoте 2 м в тени вдали oт зданий и деревьев.
Скoрoсть ветра измеряется на высoте 10 м (на урoвне рoста челoвека скoрoсть ветра ниже в 1.5-2 раза). Если метеoстанция нахoдится в гoрoде или в лесу, тo скoрoсть ветра занижена на 2-4 м/с пo сравнению с oткрытым местoм. Скoрoсть ветра над акватoриями крупных рек и oзёр, а также на вершинах хoлмoв на 2-5 м/с выше, чем в oбычных услoвиях.
Атмoсфернoе давление в разных тoчках местнoсти мoжет значительнo oтличаться oт давления на метеoстанции, в зависимoсти oт услoвий рельефа (при пoдъёме на 10 м давление пoнижается примернo на 1 мм рт.ст.).